H1 CPF 1 NER 2017 4 21 9 6111 glonass109 H2 0706503 9109 32395 2017 4 21 0 0 0 2017 4 24 23 45 0 900 1 1 0 0 0 H9 10 0 57864 0.00000 0 6004863.440 17700794.846 -17332124.176 10 0 57864 900.00000 0 5955060.346 19702022.317 -15029616.331 10 0 57864 1800.00000 0 6057898.703 21400325.251 -12434409.855 10 0 57864 2700.00000 0 6269086.213 22752491.234 -9596902.471 10 0 57864 3600.00000 0 6537763.678 23726820.594 -6572288.917 10 0 57864 4500.00000 0 6808871.667 24304338.577 -3419482.331 10 0 57864 5400.00000 0 7025708.741 24479487.981 -199956.233 10 0 57864 6300.00000 0 7132571.188 24260271.524 3023469.275 10 0 57864 7200.00000 0 7077360.173 23667837.100 6187871.686 10 0 57864 8100.00000 0 6814043.133 22735523.246 9231474.363 10 0 57864 9000.00000 0 6304862.445 21507405.641 12094872.387 10 0 57864 9900.00000 0 5522195.266 20036407.163 14722209.828 10 0 57864 10800.00000 0 4449983.718 18382052.963 17062283.650 10 0 57864 11700.00000 0 3084673.357 16607967.124 19069551.304 10 0 57864 12600.00000 0 1435619.381 14779218.387 20705021.438 10 0 57864 13500.00000 0 -475056.833 12959628.307 21937010.193 10 0 57864 14400.00000 0 -2613154.703 11209156.149 22741748.711 10 0 57864 15300.00000 0 -4933595.356 9581470.838 23103830.953 10 0 57864 16200.00000 0 -7382085.408 8121811.453 23016494.467 10 0 57864 17100.00000 0 -9897173.166 6865224.771 22481730.283 10 0 57864 18000.00000 0 -12412610.661 5835251.851 21510221.556 10 0 57864 18900.00000 0 -14859922.628 5043116.162 20121113.871 10 0 57864 19800.00000 0 -17171075.491 4487444.399 18341623.264 10 0 57864 20700.00000 0 -19281135.678 4154528.766 16206490.904 10 0 57864 21600.00000 0 -21130807.636 4019116.805 13757296.062 10 0 57864 22500.00000 0 -22668747.365 4045693.125 11041641.338 10 0 57864 23400.00000 0 -23853556.830 4190197.165 8112226.369 10 0 57864 24300.00000 0 -24655378.173 4402103.372 5025827.957 10 0 57864 25200.00000 0 -25057023.264 4626775.484 1842206.059 10 0 57864 26100.00000 0 -25054593.352 4807995.693 -1377043.626 10 0 57864 27000.00000 0 -24657564.564 4890562.509 -4569669.100 10 0 57864 27900.00000 0 -23888336.879 4822848.605 -7673951.725 10 0 57864 28800.00000 0 -22781266.082 4559211.833 -10629884.136 10 0 57864 29700.00000 0 -21381219.277 4062158.724 -13380314.920 10 0 57864 30600.00000 0 -19741713.794 3304170.025 -15872039.289 10 0 57864 31500.00000 0 -17922716.310 2269111.717 -18056815.835 10 0 57864 32400.00000 0 -15988192.646 953171.797 -19892291.002 10 0 57864 33300.00000 0 -14003508.855 -634717.593 -21342814.370 10 0 57864 34200.00000 0 -12032790.327 -2472992.155 -22380129.659 10 0 57864 35100.00000 0 -10136347.411 -4528099.310 -22983928.439 10 0 57864 36000.00000 0 -8368273.548 -6755649.998 -23142255.668 10 0 57864 36900.00000 0 -6774315.211 -9102033.478 -22851758.568 10 0 57864 37800.00000 0 -5390102.110 -11506430.977 -22117772.880 10 0 57864 38700.00000 0 -4239811.659 -13903147.234 -20954243.254 10 0 57864 39600.00000 0 -3335324.215 -16224165.080 -19383477.409 10 0 57864 40500.00000 0 -2675905.423 -18401818.252 -17435736.759 10 0 57864 41400.00000 0 -2248430.151 -20371471.815 -15148669.325 10 0 57864 42300.00000 0 -2028139.864 -22074098.065 -12566594.122 10 0 57864 43200.00000 0 -1979902.453 -23458639.432 -9739649.404 10 0 57864 44100.00000 0 -2059921.939 -24484057.875 -6722820.376 10 0 57864 45000.00000 0 -2217825.762 -25120982.880 -3574865.065 10 0 57864 45900.00000 0 -2399040.594 -25352886.822 -357159.664 10 0 57864 46800.00000 0 -2547354.618 -25176736.394 2867513.106 10 0 57864 47700.00000 0 -2607555.638 -24603091.229 6036207.266 10 0 57864 48600.00000 0 -2528030.696 -23655644.794 9087062.258 10 0 57864 49500.00000 0 -2263214.317 -22370226.817 11960530.476 10 0 57864 50400.00000 0 -1775778.998 -20793309.978 14600557.484 10 0 57864 51300.00000 0 -1038472.861 -18980085.083 16955690.021 10 0 57864 52200.00000 0 -35524.867 -16992187.449 18980088.779 10 0 57864 53100.00000 0 1236442.978 -14895172.080 20634425.220 10 0 57864 54000.00000 0 2768035.533 -12755845.474 21886644.770 10 0 57864 54900.00000 0 4537252.547 -10639567.415 22712581.866 10 0 57864 55800.00000 0 6510197.235 -8607636.730 23096415.745 10 0 57864 56700.00000 0 8642294.878 -6714870.458 23030959.479 10 0 57864 57600.00000 0 10879969.491 -5007476.958 22517778.244 10 0 57864 58500.00000 0 13162707.507 -3521310.332 21567136.258 10 0 57864 59400.00000 0 15425421.606 -2280576.852 20197775.191 10 0 57864 60300.00000 0 17601015.811 -1297044.660 18436529.900 10 0 57864 61200.00000 0 19623044.884 -569786.749 16317790.320 10 0 57864 62100.00000 0 21428357.813 -85464.837 13882821.035 10 0 57864 63000.00000 0 22959616.234 180860.733 11178952.339 10 0 57864 63900.00000 0 24167584.103 264431.521 8258658.970 10 0 57864 64800.00000 0 25013094.853 209058.543 5178544.333 10 0 57864 65700.00000 0 25468615.672 65030.979 1998249.620 10 0 57864 66600.00000 0 25519345.327 -113245.329 -1220691.497 10 0 57864 67500.00000 0 25163801.208 -269780.099 -4416031.267 10 0 57864 68400.00000 0 24413872.224 -349595.370 -7525997.531 10 0 57864 69300.00000 0 23294336.040 -301278.194 -10490472.712 10 0 57864 70200.00000 0 21841860.955 -79382.661 -13252140.631 10 0 57864 71100.00000 0 20103533.693 353419.091 -15757580.299 10 0 57864 72000.00000 0 18134973.583 1024526.818 -17958286.764 10 0 57864 72900.00000 0 15998110.385 1950019.173 -19811600.508 10 0 57864 73800.00000 0 13758716.652 3133736.880 -21281528.462 10 0 57864 74700.00000 0 11483795.543 4566881.810 -22339441.386 10 0 57864 75600.00000 0 9238931.032 6228150.742 -22964634.522 10 0 57864 76500.00000 0 7085709.073 8084400.832 -23144740.528 10 0 57864 77400.00000 0 5079315.883 10091821.861 -22875986.065 10 0 57864 78300.00000 0 3266412.499 12197569.491 -22163285.994 10 0 57864 79200.00000 0 1683373.843 14341794.389 -21020171.769 10 0 57864 80100.00000 0 354966.092 16459985.118 -19468553.572 10 0 57864 81000.00000 0 -706481.789 18485529.035 -17538318.708 10 0 57864 81900.00000 0 -1501376.701 20352385.483 -15266771.951 10 0 57864 82800.00000 0 -2042616.640 21997759.757 -12697926.862 10 0 57864 83700.00000 0 -2354811.830 23364665.404 -9881660.315 10 0 57864 84600.00000 0 -2473003.946 24404266.164 -6872745.670 10 0 57864 85500.00000 0 -2440937.287 25077897.292 -3729783.163 10 0 57865 0.00000 0 -2308955.468 25358679.237 -514048.749 10 0 57865 900.00000 0 -2131613.966 25232653.202 2711715.550 10 0 57865 1800.00000 0 -1965110.883 24699389.896 5884543.543 10 0 57865 2700.00000 0 -1864648.127 23772042.654 8942494.081 10 0 57865 3600.00000 0 -1881836.370 22476843.869 11825880.157 10 0 57865 4500.00000 0 -2062257.179 20852064.713 14478451.979 10 0 57865 5400.00000 0 -2443287.710 18946483.253 16848509.029 10 0 57865 6300.00000 0 -3052282.173 16817426.552 18889917.977 10 0 57865 7200.00000 0 -3905188.405 14528470.745 20563015.588 10 0 57865 8100.00000 0 -5005658.774 12146897.343 21835378.780 10 0 57865 9000.00000 0 -6344693.109 9741013.877 22682447.172 10 0 57865 9900.00000 0 -7900828.263 7377452.178 23087986.804 10 0 57865 10800.00000 0 -9640865.573 5118557.638 23044387.397 10 0 57865 11700.00000 0 -11521104.686 3019978.125 22552788.926 10 0 57865 12600.00000 0 -13489030.912 1128552.098 21623036.828 10 0 57865 13500.00000 0 -15485384.595 -519417.944 20273468.462 10 0 57865 14400.00000 0 -17446525.328 -1899437.177 18530536.536 10 0 57865 15300.00000 0 -19306991.914 -2999585.220 16428278.241 10 0 57865 16200.00000 0 -21002151.385 -3820749.154 14007641.424 10 0 57865 17100.00000 0 -22470827.098 -4376316.248 11315681.579 10 0 57865 18000.00000 0 -23657797.141 -4691342.115 8404645.665 10 0 57865 18900.00000 0 -24516060.065 -4801231.670 5330960.525 10 0 57865 19800.00000 0 -25008774.803 -4749990.096 2154145.232 10 0 57865 20700.00000 0 -25110795.191 -4588118.455 -1064332.035 10 0 57865 21600.00000 0 -24809736.386 -4370243.003 -4262231.270 10 0 57865 22500.00000 0 -24106529.682 -4152577.852 -7377730.263 10 0 57865 23400.00000 0 -23015443.242 -3990327.255 -10350604.630 10 0 57865 24300.00000 0 -21563568.027 -3935136.028 -13123376.694 10 0 57865 25200.00000 0 -19789790.015 -4032694.527 -15642412.334 10 0 57865 26100.00000 0 -17743290.638 -4320598.167 -17858945.827 10 0 57865 27000.00000 0 -15481636.578 -4826551.034 -19730014.089 10 0 57865 27900.00000 0 -13068536.574 -5566989.209 -21219283.318 10 0 57865 28800.00000 0 -10571356.691 -6546182.259 -22297752.680 10 0 57865 29700.00000 0 -8058495.212 -7755852.035 -22944321.862 10 0 57865 30600.00000 0 -5596724.339 -9175326.815 -23146211.393 10 0 57865 31500.00000 0 -3248607.593 -10772226.893 -22899226.977 10 0 57865 32400.00000 0 -1070099.038 -12503655.881 -22207861.662 10 0 57865 33300.00000 0 891576.480 -14317850.895 -21085232.330 10 0 57865 34200.00000 0 2599673.899 -16156225.361 -19552849.857 10 0 57865 35100.00000 0 4029235.924 -17955721.346 -17640225.347 10 0 57865 36000.00000 0 5167903.070 -19651374.584 -15384317.981 10 0 57865 36900.00000 0 6016190.815 -21178985.489 -12828833.317 10 0 57865 37800.00000 0 6587221.284 -22477784.056 -10023384.151 10 0 57865 38700.00000 0 6905919.991 -23492975.791 -7022529.215 10 0 57865 39600.00000 0 7007711.062 -24178059.950 -3884708.125 10 0 57865 40500.00000 0 6936766.272 -24496820.368 -671093.654 10 0 57865 41400.00000 0 6743882.742 -24424902.665 2555615.373 10 0 57865 42300.00000 0 6484080.622 -23950909.052 5732435.306 10 0 57865 43200.00000 0 6214024.580 -23076962.693 8797346.918 10 0 57865 44100.00000 0 5989380.846 -21818716.484 11690526.115 10 0 57865 45000.00000 0 5862224.345 -20204805.295 14355529.832 10 0 57865 45900.00000 0 5878608.348 -18275764.859 16740412.132 10 0 57865 46800.00000 0 6076401.655 -16082463.574 18798747.208 10 0 57865 47700.00000 0 6483486.480 -13684114.390 20490538.352 10 0 57865 48600.00000 0 7116394.144 -11145951.716 21782994.875 10 0 57865 49500.00000 0 7979436.545 -8536672.129 22651162.142 10 0 57865 50400.00000 0 9064369.635 -5925747.212 23078393.260 10 0 57865 51300.00000 0 10350602.299 -3380721.462 23056654.567 10 0 57865 52200.00000 0 11805940.737 -964607.997 22586660.566 10 0 57865 53100.00000 0 13387835.750 1266510.020 21677837.428 10 0 57865 54000.00000 0 15045079.449 3265573.832 20348117.534 10 0 57865 54900.00000 0 16719879.282 4996254.394 18623570.635 10 0 57865 55800.00000 0 18350221.837 6434200.116 16537880.201 10 0 57865 56700.00000 0 19872427.302 7567778.183 14131676.220 10 0 57865 57600.00000 0 21223787.923 8398281.705 11451738.071 10 0 57865 58500.00000 0 22345180.707 8939597.130 8550083.411 10 0 57865 59400.00000 0 23183546.077 9217348.610 5482960.786 10 0 57865 60300.00000 0 23694130.031 9267557.494 2309765.177 10 0 57865 61200.00000 0 23842397.287 9134874.745 -908102.914 10 0 57865 62100.00000 0 23605536.663 8870461.551 -4108413.567 10 0 57865 63000.00000 0 22973496.749 8529607.478 -7229296.974 10 0 57865 63900.00000 0 21949509.247 8169186.095 -10210424.416 10 0 57865 64800.00000 0 20550078.306 7845054.373 -12994159.135 10 0 57865 65700.00000 0 18804435.922 7609504.381 -15526656.205 10 0 57865 66600.00000 0 16753485.269 7508873.430 -17758891.315 10 0 57865 67500.00000 0 14448274.516 7581412.411 -19647599.869 10 0 57865 68400.00000 0 11948062.806 7855501.474 -21156109.240 10 0 57865 69300.00000 0 9318056.714 8348288.122 -22255048.781 10 0 57865 70200.00000 0 6626908.937 9064805.661 -22922924.268 10 0 57865 71100.00000 0 3944080.853 9997610.445 -23146545.573 10 0 57865 72000.00000 0 1337176.538 11126955.136 -22921298.687 10 0 57865 72900.00000 0 -1130642.656 12421493.252 -22251255.813 10 0 57865 73800.00000 0 -3403056.637 13839488.258 -21149119.856 10 0 57865 74700.00000 0 -5432698.872 15330479.262 -19636002.575 10 0 57865 75600.00000 0 -7182894.461 16837335.982 -17741038.621 10 0 57865 76500.00000 0 -8628950.946 18298618.737 -15500840.862 10 0 57865 77400.00000 0 -9758946.935 19651145.577 -12958805.694 10 0 57865 78300.00000 0 -10573984.544 20832659.016 -10164280.250 10 0 57865 79200.00000 0 -11087894.146 21784479.661 -7171606.670 10 0 57865 80100.00000 0 -11326403.150 22454033.598 -4039061.654 10 0 57865 81000.00000 0 -11325803.791 22797145.035 -827712.278 10 0 57865 81900.00000 0 -11131176.637 22779995.117 2399788.753 10 0 57865 82800.00000 0 -10794246.070 22380661.730 5580443.249 10 0 57865 83700.00000 0 -10370960.271 21590173.067 8652156.973 10 0 57865 84600.00000 0 -9918900.415 20413028.582 11554971.863 10 0 57865 85500.00000 0 -9494631.315 18867164.228 14232254.694 10 0 57866 0.00000 0 -9151108.165 16983362.945 16631817.089 10 0 57866 900.00000 0 -8935251.788 14804135.100 18706943.747 10 0 57866 1800.00000 0 -8885795.654 12382117.597 20417307.182 10 0 57866 2700.00000 0 -9031498.780 9778058.830 21729751.581 10 0 57866 3600.00000 0 -9389798.320 7058476.179 22618930.281 10 0 57866 4500.00000 0 -9965959.916 4293084.839 23067785.347 10 0 57866 5400.00000 0 -10752760.136 1552106.362 23067861.251 10 0 57866 6300.00000 0 -11730713.287 -1096430.554 22619448.112 10 0 57866 7200.00000 0 -12868831.498 -3589284.833 21731553.449 10 0 57866 8100.00000 0 -14125884.599 -5870386.386 20421704.765 10 0 57866 9000.00000 0 -15452105.529 -7892910.708 18715588.405 10 0 57866 9900.00000 0 -16791268.589 -9620960.620 16646533.149 10 0 57866 10800.00000 0 -18083052.734 -11030788.029 14254849.621 10 0 57866 11700.00000 0 -19265590.630 -12111507.853 11587039.106 10 0 57866 12600.00000 0 -20278096.838 -12865277.410 8694887.566 10 0 57866 13500.00000 0 -21063465.674 -13306936.728 5634462.479 10 0 57866 14400.00000 0 -21570730.815 -13463127.361 2465031.693 10 0 57866 15300.00000 0 -21757284.700 -13370928.588 -752075.228 10 0 57866 16200.00000 0 -21590765.914 -13076069.553 -3954641.878 10 0 57866 17100.00000 0 -21050536.470 -12630793.081 -7080754.376 10 0 57866 18000.00000 0 -20128687.864 -12091460.912 -10069983.241 10 0 57866 18900.00000 0 -18830534.052 -11516000.517 -12864536.194 10 0 57866 19800.00000 0 -17174570.463 -10961299.933 -15410360.957 10 0 57866 20700.00000 0 -15191899.954 -10480659.032 -17658177.893 10 0 57866 21600.00000 0 -12925148.184 -10121403.274 -19564423.824 10 0 57866 22500.00000 0 -10426911.696 -9922759.371 -21092089.808 10 0 57866 23400.00000 0 -7757801.006 -9914081.636 -22211437.369 10 0 57866 24300.00000 0 -4984157.529 -10113503.596 -22900579.756 10 0 57866 25200.00000 0 -2175536.615 -10527072.234 -23145916.940 10 0 57866 26100.00000 0 597941.121 -11148402.573 -22942415.340 10 0 57866 27000.00000 0 3268262.198 -11958869.035 -22293725.876 10 0 57866 27900.00000 0 5772106.996 -12928327.925 -21212136.538 10 0 57866 28800.00000 0 8053244.038 -14016343.225 -19718358.568 10 0 57866 29700.00000 0 10064632.539 -15173866.672 -17841148.366 10 0 57866 30600.00000 0 11770145.264 -16345303.620 -15616770.332 10 0 57866 31500.00000 0 13145838.906 -17470879.292 -13088309.212 10 0 57866 32400.00000 0 14180717.855 -18489206.527 -10304843.704 10 0 57866 33300.00000 0 14876958.229 -19339946.706 -7320496.318 10 0 57866 34200.00000 0 15249581.811 -19966450.618 -4193377.611 10 0 57866 35100.00000 0 15325593.159 -20318266.060 -984445.601 10 0 57866 36000.00000 0 15142616.364 -20353403.992 2243696.516 10 0 57866 36900.00000 0 14747089.706 -20040264.928 5428039.328 10 0 57866 37800.00000 0 14192095.968 -19359141.666 8506416.732 10 0 57866 38700.00000 0 13534922.118 -18303232.569 11418739.567 10 0 57866 39600.00000 0 12834453.944 -16879120.946 14108186.977 10 0 57866 40500.00000 0 12148518.364 -15106699.218 16522330.356 10 0 57866 41400.00000 0 11531288.166 -13018540.657 18614166.440 10 0 57866 42300.00000 0 11030860.831 -10658745.453 20343038.261 10 0 57866 43200.00000 0 10687115.133 -8081310.326 21675425.701 10 0 57866 44100.00000 0 10529936.611 -5348091.057 22585590.435 10 0 57866 45000.00000 0 10577886.678 -2526444.414 23056063.461 10 0 57866 45900.00000 0 10837370.645 313351.095 23077967.019 10 0 57866 46800.00000 0 11302338.350 3100787.506 22651166.177 10 0 57866 47700.00000 0 11954528.229 5767820.485 21784248.888 10 0 57866 48600.00000 0 12764242.696 8251451.767 20494336.675 10 0 57866 49500.00000 0 13691620.420 10496094.876 18806731.236 10 0 57866 50400.00000 0 14688350.431 12455627.560 16754405.273 10 0 57866 51300.00000 0 15699754.901 14095048.038 14377348.563 10 0 57866 52200.00000 0 16667152.422 15391668.960 11721782.692 10 0 57866 53100.00000 0 17530402.320 16335802.168 8839260.191 10 0 57866 54000.00000 0 18230523.477 16930908.690 5785665.622 10 0 57866 54900.00000 0 18712278.361 17193210.334 2620137.701 10 0 57866 55800.00000 0 18926614.723 17150781.300 -596067.044 10 0 57866 56700.00000 0 18832863.532 16842159.547 -3800747.904 10 0 57866 57600.00000 0 18400601.936 16314537.066 -6931949.127 10 0 57866 58500.00000 0 17611103.864 15621605.359 -9929142.643 10 0 57866 59400.00000 0 16458317.903 14821146.253 -12734382.747 10 0 57866 60300.00000 0 14949331.329 13972468.438 -15293411.776 10 0 57866 61200.00000 0 13104300.218 13133796.294 -17556696.611 10 0 57866 62100.00000 0 10955847.216 12359719.371 -19480377.214 10 0 57866 63000.00000 0 8547950.149 11698808.439 -21027109.932 10 0 57866 63900.00000 0 5934365.492 11191497.261 -22166789.963 10 0 57866 64800.00000 0 3176649.581 10868318.497 -22877139.427 10 0 57866 65700.00000 0 341856.988 10748567.849 -23144149.657 10 0 57866 66600.00000 0 -2499990.911 10839453.208 -22962368.583 10 0 57866 67500.00000 0 -5278564.524 11135765.808 -22335026.664 10 0 57866 68400.00000 0 -7925903.285 11620088.990 -21273997.459 10 0 57866 69300.00000 0 -10379001.519 12263537.937 -19799591.802 10 0 57866 70200.00000 0 -12582196.019 13027001.501 -17940187.529 10 0 57866 71100.00000 0 -14489255.875 13862835.939 -15731699.849 10 0 57866 72000.00000 0 -16065086.628 14716940.880 -13216900.750 10 0 57866 72900.00000 0 -17286976.552 15531131.015 -10444599.039 10 0 57866 73800.00000 0 -18145331.595 16245703.659 -7468695.851 10 0 57866 74700.00000 0 -18643866.934 16802093.135 -4347133.607 10 0 57866 75600.00000 0 -18799246.218 17145498.362 -1140759.066 10 0 57866 76500.00000 0 -18640183.294 17227370.459 2087876.484 10 0 57866 77400.00000 0 -18206044.553 17007652.637 5275754.960 10 0 57866 78300.00000 0 -17545011.843 16456674.988 8360641.102 10 0 57866 79200.00000 0 -16711885.162 15556621.497 11282317.468 10 0 57866 80100.00000 0 -15765620.062 14302505.152 13983778.445 10 0 57866 81000.00000 0 -14766706.204 12702608.431 16412358.042 10 0 57866 81900.00000 0 -13774500.193 10778369.639 18520767.921 10 0 57866 82800.00000 0 -12844627.402 8563719.690 20268024.280 10 0 57866 83700.00000 0 -12026564.051 6103897.568 21620245.142 10 0 57866 84600.00000 0 -11361502.372 3453794.850 22551302.712 10 0 57866 85500.00000 0 -10880588.951 675899.704 23043318.794 10 0 57867 0.00000 0 -10603609.725 -2162072.759 23086994.907 10 0 57867 900.00000 0 -10538175.890 -4989764.334 22681772.160 10 0 57867 1800.00000 0 -10679442.240 -7736863.473 21835819.656 10 0 57867 2700.00000 0 -11010369.112 -10335789.234 20565853.186 10 0 57867 3600.00000 0 -11502513.039 -12724259.063 18896789.612 10 0 57867 4500.00000 0 -12117311.929 -14847634.451 16861244.936 10 0 57867 5400.00000 0 -12807808.504 -16660949.296 14498887.027 10 0 57867 6300.00000 0 -13520738.386 -18130538.910 11855656.315 10 0 57867 7200.00000 0 -14198894.321 -19235204.467 8982870.078 10 0 57867 8100.00000 0 -14783666.923 -19966867.159 5936227.802 10 0 57867 9000.00000 0 -15217655.414 -20330687.372 2774736.639 10 0 57867 9900.00000 0 -15447239.271 -20344646.155 -440422.623 10 0 57867 10800.00000 0 -15425003.579 -20038608.343 -3647067.885 10 0 57867 11700.00000 0 -15111917.127 -19452907.768 -6783204.652 10 0 57867 12600.00000 0 -14479172.609 -18636514.399 -9788209.552 10 0 57867 13500.00000 0 -13509612.231 -17644860.223 -12603986.857 10 0 57867 14400.00000 0 -12198679.012 -16537414.389 -15176076.968 10 0 57867 15300.00000 0 -10554853.449 -15375108.289 -17454696.656 10 0 57867 16200.00000 0 -8599556.175 -14217717.214 -19395692.223 10 0 57867 17100.00000 0 -6366518.887 -13121306.969 -20961388.210 10 0 57867 18000.00000 0 -3900647.533 -12135851.236 -22121315.972 10 0 57867 18900.00000 0 -1256422.382 -11303118.577 -22852808.494 10 0 57867 19800.00000 0 1504101.417 -10654917.128 -23141449.918 10 0 57867 20700.00000 0 4313612.568 -10211770.644 -22981370.563 10 0 57867 21600.00000 0 7102088.057 -9982082.063 -22375380.767 10 0 57867 22500.00000 0 9799459.914 -9961820.841 -21334939.494 10 0 57867 23400.00000 0 12338295.057 -10134748.851 -19879956.516 10 0 57867 24300.00000 0 14656377.825 -10473177.178 -18038429.996 10 0 57867 25200.00000 0 16699087.873 -10939223.815 -15845924.386 10 0 57867 26100.00000 0 18421473.781 -11486520.948 -13344896.882 10 0 57867 27000.00000 0 19789934.772 -12062300.904 -10583883.907 10 0 57867 27900.00000 0 20783438.835 -12609773.214 -7616562.287 10 0 57867 28800.00000 0 21394224.697 -13070691.973 -4500702.971 10 0 57867 29700.00000 0 21627956.897 -13388003.834 -1297037.825 10 0 57867 30600.00000 0 21503326.585 -13508462.710 1931937.592 10 0 57867 31500.00000 0 21051114.555 -13385098.166 5123200.392 10 0 57867 32400.00000 0 20312756.461 -12979430.295 8214449.906 10 0 57867 33300.00000 0 19338471.862 -12263334.685 11145343.910 10 0 57867 34200.00000 0 18185037.783 -11220476.142 13858695.162 10 0 57867 35100.00000 0 16913302.910 -9847248.603 16301602.970 10 0 57867 36000.00000 0 15585549.576 -8153180.174 18426496.096 10 0 57867 36900.00000 0 14262817.006 -6160785.563 20192065.555 10 0 57867 37800.00000 0 13002300.387 -3904872.011 21564068.642 10 0 57867 38700.00000 0 11854936.468 -1431328.286 22515988.718 10 0 57867 39600.00000 0 10863277.714 1204551.670 23029538.537 10 0 57867 40500.00000 0 10059743.979 3940139.406 23094998.585 10 0 57867 41400.00000 0 9465323.939 6707849.690 22711385.360 10 0 57867 42300.00000 0 9088779.041 9437725.457 21886448.039 10 0 57867 43200.00000 0 8926381.024 12060122.283 20636495.365 10 0 57867 44100.00000 0 8962191.472 14508381.053 18986057.784 10 0 57867 45000.00000 0 9168869.160 16721378.558 16967392.828 10 0 57867 45900.00000 0 9508968.893 18645851.499 14619844.541 10 0 57867 46800.00000 0 9936675.399 20238399.215 11989070.144 10 0 57867 47700.00000 0 10399897.981 21467083.989 9126149.509 10 0 57867 48600.00000 0 10842637.086 22312564.808 6086594.803 10 0 57867 49500.00000 0 11207522.989 22768719.751 2929279.287 10 0 57867 50400.00000 0 11438420.112 22842733.227 -284694.350 10 0 57867 51300.00000 0 11482988.021 22554646.346 -3493164.987 10 0 57867 52200.00000 0 11295092.248 21936390.576 -6634101.695 10 0 57867 53100.00000 0 10836964.426 21030345.872 -9646787.997 10 0 57867 54000.00000 0 10081021.641 19887483.823 -12472980.181 10 0 57867 54900.00000 0 9011268.895 18565173.076 -15058018.573 10 0 57867 55800.00000 0 7624225.684 17124738.002 -17351871.509 10 0 57867 56700.00000 0 5929337.025 15628871.495 -19310093.132 10 0 57867 57600.00000 0 3948850.239 14139008.664 -20894677.515 10 0 57867 58500.00000 0 1717160.565 12712769.849 -22074793.382 10 0 57867 59400.00000 0 -720349.719 11401578.615 -22827385.647 10 0 57867 60300.00000 0 -3308933.317 10248553.395 -23137632.164 10 0 57867 61200.00000 0 -5986496.586 9286760.567 -22999246.346 10 0 57867 62100.00000 0 -8685933.904 8537902.141 -22414618.843 10 0 57867 63000.00000 0 -11337683.354 8011493.624 -21394794.125 10 0 57867 63900.00000 0 -13872399.440 7704567.672 -19959280.640 10 0 57867 64800.00000 0 -16223633.052 7601917.348 -18135696.227 10 0 57867 65700.00000 0 -18330407.657 7676870.343 -15959253.563 10 0 57867 66600.00000 0 -20139584.043 7892563.055 -13472093.715 10 0 57867 67500.00000 0 -21607914.005 8203661.956 -10722479.117 10 0 57867 68400.00000 0 -22703695.692 8558460.196 -7763860.472 10 0 57867 69300.00000 0 -23407959.553 8901260.782 -4653835.275 10 0 57867 70200.00000 0 -23715133.504 9174944.670 -1453018.376 10 0 57867 71100.00000 0 -23633158.007 9323613.480 1776152.650 10 0 57867 72000.00000 0 -23183045.333 9295192.741 4970652.504 10 0 57867 72900.00000 0 -22397901.438 9043882.812 8068117.622 10 0 57867 73800.00000 0 -21321452.217 8532350.909 11008083.627 10 0 57867 74700.00000 0 -20006137.528 7733568.861 13733184.335 10 0 57867 75600.00000 0 -18510855.120 6632216.579 16190287.017 10 0 57867 76500.00000 0 -16898451.658 5225590.159 18331540.118 10 0 57867 77400.00000 0 -15233068.666 3523975.274 20115311.861 10 0 57867 78300.00000 0 -13577457.027 1550469.616 21507000.943 10 0 57867 79200.00000 0 -11990374.320 -659738.034 22479703.671 10 0 57867 80100.00000 0 -10524175.149 -3060601.259 23014725.177 10 0 57867 81000.00000 0 -9222695.460 -5596909.502 23101925.957 10 0 57867 81900.00000 0 -8119518.697 -8206369.971 22739898.531 10 0 57867 82800.00000 0 -7236694.835 -10821990.221 21935972.437 10 0 57867 83700.00000 0 -6583963.681 -13374661.661 20706049.287 10 0 57867 84600.00000 0 -6158512.278 -15795836.445 19074272.695 10 0 57867 85500.00000 0 -5945273.772 -18020186.699 17072540.991 99